Year,Month,Day,Hour,Minute,Value (Times are PST for temperature in C)
2019,05,28,00,00,19.80
2019,05,28,00,01,19.80
2019,05,28,00,02,19.80
2019,05,28,00,03,19.80
2019,05,28,00,04,19.80
2019,05,28,00,05,19.80
2019,05,28,00,06,19.70
2019,05,28,00,07,19.70
2019,05,28,00,08,19.70
2019,05,28,00,09,19.70
2019,05,28,00,10,19.70
2019,05,28,00,11,19.60
2019,05,28,00,12,19.60
2019,05,28,00,13,19.60
2019,05,28,00,14,19.50
2019,05,28,00,15,19.50
2019,05,28,00,16,19.40
2019,05,28,00,17,19.40
2019,05,28,00,18,19.40
2019,05,28,00,19,19.30
2019,05,28,00,20,19.30
2019,05,28,00,21,19.30
2019,05,28,00,22,19.30
2019,05,28,00,23,19.30
2019,05,28,00,24,19.20
2019,05,28,00,25,19.20
2019,05,28,00,26,19.20
2019,05,28,00,27,19.20
2019,05,28,00,28,19.10
2019,05,28,00,29,19.10
2019,05,28,00,30,19.10
2019,05,28,00,31,19.10
2019,05,28,00,32,19.00
2019,05,28,00,33,19.00
2019,05,28,00,34,19.00
2019,05,28,00,35,18.90
2019,05,28,00,36,18.90
2019,05,28,00,37,18.90
2019,05,28,00,38,18.90
2019,05,28,00,39,18.90
2019,05,28,00,40,18.90
2019,05,28,00,41,18.90
2019,05,28,00,42,18.90
2019,05,28,00,43,18.80
2019,05,28,00,44,18.80
2019,05,28,00,45,18.80
2019,05,28,00,46,18.80
2019,05,28,00,47,18.70
2019,05,28,00,48,18.70
2019,05,28,00,49,18.70
2019,05,28,00,50,18.70
2019,05,28,00,51,18.70
2019,05,28,00,52,18.60
2019,05,28,00,53,18.60
2019,05,28,00,54,18.60
2019,05,28,00,55,18.60
2019,05,28,00,56,18.60
2019,05,28,00,57,18.50
2019,05,28,00,58,18.50
2019,05,28,00,59,18.50
2019,05,28,01,00,18.50
2019,05,28,01,01,18.40
2019,05,28,01,02,18.40
2019,05,28,01,03,18.40
2019,05,28,01,04,18.40
2019,05,28,01,05,18.40
2019,05,28,01,06,18.40
2019,05,28,01,07,18.40
2019,05,28,01,08,18.40
2019,05,28,01,09,18.30
2019,05,28,01,10,18.30
2019,05,28,01,11,18.30
2019,05,28,01,12,18.30
2019,05,28,01,13,18.30
2019,05,28,01,14,18.30
2019,05,28,01,15,18.20
2019,05,28,01,16,18.20
2019,05,28,01,17,18.20
2019,05,28,01,18,18.20
2019,05,28,01,19,18.10
2019,05,28,01,20,18.10
2019,05,28,01,21,18.10
2019,05,28,01,22,18.10
2019,05,28,01,23,18.00
2019,05,28,01,24,18.00
2019,05,28,01,25,18.00
2019,05,28,01,26,17.90
2019,05,28,01,27,17.90
2019,05,28,01,28,17.90
2019,05,28,01,29,17.90
2019,05,28,01,30,17.90
2019,05,28,01,31,17.80
2019,05,28,01,32,17.80
2019,05,28,01,33,17.80
2019,05,28,01,34,17.80
2019,05,28,01,35,17.80
2019,05,28,01,36,17.80
2019,05,28,01,37,17.80
2019,05,28,01,38,17.80
2019,05,28,01,39,17.80
2019,05,28,01,40,17.80
2019,05,28,01,41,17.80
2019,05,28,01,42,17.80
2019,05,28,01,43,17.70
2019,05,28,01,44,17.70
2019,05,28,01,45,17.70
2019,05,28,01,46,17.70
2019,05,28,01,47,17.70
2019,05,28,01,48,17.70
2019,05,28,01,49,17.70
2019,05,28,01,50,17.70
2019,05,28,01,51,17.70
2019,05,28,01,52,17.70
2019,05,28,01,53,17.60
2019,05,28,01,54,17.60
2019,05,28,01,55,17.60
2019,05,28,01,56,17.60
2019,05,28,01,57,17.50
2019,05,28,01,58,17.50
2019,05,28,01,59,17.50
2019,05,28,02,00,17.50
2019,05,28,02,01,17.40
2019,05,28,02,02,17.40
2019,05,28,02,03,17.40
2019,05,28,02,04,17.40
2019,05,28,02,05,17.40
2019,05,28,02,06,17.40
2019,05,28,02,07,17.30
2019,05,28,02,08,17.30
2019,05,28,02,09,17.30
2019,05,28,02,10,17.30
2019,05,28,02,11,17.30
2019,05,28,02,12,17.30
2019,05,28,02,13,17.30
2019,05,28,02,14,17.20
2019,05,28,02,15,17.20
2019,05,28,02,16,17.20
2019,05,28,02,17,17.20
2019,05,28,02,18,17.20
2019,05,28,02,19,17.20
2019,05,28,02,20,17.10
2019,05,28,02,21,17.10
2019,05,28,02,22,17.10
2019,05,28,02,23,17.10
2019,05,28,02,24,17.10
2019,05,28,02,25,17.10
2019,05,28,02,26,17.10
2019,05,28,02,27,17.00
2019,05,28,02,28,17.00
2019,05,28,02,29,17.00
2019,05,28,02,30,17.00
2019,05,28,02,31,17.00
2019,05,28,02,32,17.00
2019,05,28,02,33,17.00
2019,05,28,02,34,16.90
2019,05,28,02,35,16.90
2019,05,28,02,36,16.90
2019,05,28,02,37,16.90
2019,05,28,02,38,16.90
2019,05,28,02,39,16.80
2019,05,28,02,40,16.80
2019,05,28,02,41,16.80
2019,05,28,02,42,16.80
2019,05,28,02,43,16.80
2019,05,28,02,44,16.80
2019,05,28,02,45,16.80
2019,05,28,02,46,16.80
2019,05,28,02,47,16.80
2019,05,28,02,48,16.70
2019,05,28,02,49,16.70
2019,05,28,02,50,16.70
2019,05,28,02,51,16.70
2019,05,28,02,52,16.70
2019,05,28,02,53,16.70
2019,05,28,02,54,16.70
2019,05,28,02,55,16.70
2019,05,28,02,56,16.70
2019,05,28,02,57,16.70
2019,05,28,02,58,16.70
2019,05,28,02,59,16.60
2019,05,28,03,00,16.60
2019,05,28,03,01,16.60
2019,05,28,03,02,16.60
2019,05,28,03,03,16.60
2019,05,28,03,04,16.60
2019,05,28,03,05,16.70
2019,05,28,03,06,16.70
2019,05,28,03,07,16.70
2019,05,28,03,08,16.60
2019,05,28,03,09,16.60
2019,05,28,03,10,16.60
2019,05,28,03,11,16.60
2019,05,28,03,12,16.60
2019,05,28,03,13,16.60
2019,05,28,03,14,16.60
2019,05,28,03,15,16.60
2019,05,28,03,16,16.60
2019,05,28,03,17,16.60
2019,05,28,03,18,16.50
2019,05,28,03,19,16.50
2019,05,28,03,20,16.50
2019,05,28,03,21,16.50
2019,05,28,03,22,16.40
2019,05,28,03,23,16.40
2019,05,28,03,24,16.40
2019,05,28,03,25,16.40
2019,05,28,03,26,16.40
2019,05,28,03,27,16.40
2019,05,28,03,28,16.40
2019,05,28,03,29,16.40
2019,05,28,03,30,16.40
2019,05,28,03,31,16.40
2019,05,28,03,32,16.30
2019,05,28,03,33,16.30
2019,05,28,03,34,16.30
2019,05,28,03,35,16.30
2019,05,28,03,36,16.30
2019,05,28,03,37,16.30
2019,05,28,03,38,16.30
2019,05,28,03,39,16.30
2019,05,28,03,40,16.30
2019,05,28,03,41,16.30
2019,05,28,03,42,16.30
2019,05,28,03,43,16.30
2019,05,28,03,44,16.30
2019,05,28,03,45,16.30
2019,05,28,03,46,16.30
2019,05,28,03,47,16.30
2019,05,28,03,48,16.30
2019,05,28,03,49,16.30
2019,05,28,03,50,16.30
2019,05,28,03,51,16.20
2019,05,28,03,52,16.20
2019,05,28,03,53,16.20
2019,05,28,03,54,16.20
2019,05,28,03,55,16.20
2019,05,28,03,56,16.20
2019,05,28,03,57,16.20
2019,05,28,03,58,16.20
2019,05,28,03,59,16.20
2019,05,28,04,00,16.20
2019,05,28,04,01,16.20
2019,05,28,04,02,16.20
2019,05,28,04,03,16.10
2019,05,28,04,04,16.10
2019,05,28,04,05,16.10
2019,05,28,04,06,16.10
2019,05,28,04,07,16.10
2019,05,28,04,08,16.10
2019,05,28,04,09,16.00
2019,05,28,04,10,16.00
2019,05,28,04,11,16.00
2019,05,28,04,12,16.00
2019,05,28,04,13,15.90
2019,05,28,04,14,15.90
2019,05,28,04,15,15.90
2019,05,28,04,16,15.90
2019,05,28,04,17,15.80
2019,05,28,04,18,15.80
2019,05,28,04,19,15.80
2019,05,28,04,20,15.80
2019,05,28,04,21,15.80
2019,05,28,04,22,15.80
2019,05,28,04,23,15.80
2019,05,28,04,24,15.80
2019,05,28,04,25,15.80
2019,05,28,04,26,15.80
2019,05,28,04,27,15.80
2019,05,28,04,28,15.80
2019,05,28,04,29,15.90
2019,05,28,04,30,15.90
2019,05,28,04,31,15.90
2019,05,28,04,32,15.90
2019,05,28,04,33,15.90
2019,05,28,04,34,15.90
2019,05,28,04,35,15.90
2019,05,28,04,36,15.90
2019,05,28,04,37,15.90
2019,05,28,04,38,15.90
2019,05,28,04,39,15.90
2019,05,28,04,40,15.90
2019,05,28,04,41,15.90
2019,05,28,04,42,15.80
2019,05,28,04,43,15.80
2019,05,28,04,44,15.80
2019,05,28,04,45,15.80
2019,05,28,04,46,15.80
2019,05,28,04,47,15.80
2019,05,28,04,48,15.80
2019,05,28,04,49,15.80
2019,05,28,04,50,15.70
2019,05,28,04,51,15.70
2019,05,28,04,52,15.70
2019,05,28,04,53,15.70
2019,05,28,04,54,15.60
2019,05,28,04,55,15.60
2019,05,28,04,56,15.60
2019,05,28,04,57,15.60
2019,05,28,04,58,15.60
2019,05,28,04,59,15.60
2019,05,28,05,00,15.60
2019,05,28,05,01,15.60
2019,05,28,05,02,15.60
2019,05,28,05,03,15.60
2019,05,28,05,04,15.60
2019,05,28,05,05,15.60
2019,05,28,05,06,15.60
2019,05,28,05,07,15.60
2019,05,28,05,08,15.50
2019,05,28,05,09,15.50
2019,05,28,05,10,15.50
2019,05,28,05,11,15.50
2019,05,28,05,12,15.40
2019,05,28,05,13,15.40
2019,05,28,05,14,15.40
2019,05,28,05,15,15.40
2019,05,28,05,16,15.30
2019,05,28,05,17,15.30
2019,05,28,05,18,15.30
2019,05,28,05,19,15.30
2019,05,28,05,20,15.20
2019,05,28,05,21,15.20
2019,05,28,05,22,15.20
2019,05,28,05,23,15.20
2019,05,28,05,24,15.20
2019,05,28,05,25,15.10
2019,05,28,05,26,15.10
2019,05,28,05,27,15.10
2019,05,28,05,28,15.10
2019,05,28,05,29,15.10
2019,05,28,05,30,15.10
2019,05,28,05,31,15.10
2019,05,28,05,32,15.10
2019,05,28,05,33,15.10
2019,05,28,05,34,15.10
2019,05,28,05,35,15.10
2019,05,28,05,36,15.10
2019,05,28,05,37,15.10
2019,05,28,05,38,15.10
2019,05,28,05,39,15.10
2019,05,28,05,40,15.10
2019,05,28,05,41,15.00
2019,05,28,05,42,15.00
2019,05,28,05,43,15.00
2019,05,28,05,44,14.90
2019,05,28,05,45,14.90
2019,05,28,05,46,14.90
2019,05,28,05,47,14.80
2019,05,28,05,48,14.80
2019,05,28,05,49,14.80
2019,05,28,05,50,14.70
2019,05,28,05,51,14.70
2019,05,28,05,52,14.70
2019,05,28,05,53,14.70
2019,05,28,05,54,14.60
2019,05,28,05,55,14.60
2019,05,28,05,56,14.60
2019,05,28,05,57,14.60
2019,05,28,05,58,14.60
2019,05,28,05,59,14.50
2019,05,28,06,00,14.50
2019,05,28,06,01,14.40
2019,05,28,06,02,14.40
2019,05,28,06,03,14.40
2019,05,28,06,04,14.40
2019,05,28,06,05,14.40
2019,05,28,06,06,14.30
2019,05,28,06,07,14.30
2019,05,28,06,08,14.30
2019,05,28,06,09,14.30
2019,05,28,06,10,14.20
2019,05,28,06,11,14.20
2019,05,28,06,12,14.20
2019,05,28,06,13,14.20
2019,05,28,06,14,14.20
2019,05,28,06,15,14.20
2019,05,28,06,16,14.20
2019,05,28,06,17,14.20
2019,05,28,06,18,14.20
2019,05,28,06,19,14.20
2019,05,28,06,20,14.20
2019,05,28,06,21,14.10
2019,05,28,06,22,14.10
2019,05,28,06,23,14.10
2019,05,28,06,24,14.10
2019,05,28,06,25,14.10
2019,05,28,06,26,14.10
2019,05,28,06,27,14.10
2019,05,28,06,28,14.10
2019,05,28,06,29,14.10
2019,05,28,06,30,14.10
2019,05,28,06,31,14.10
2019,05,28,06,32,14.10
2019,05,28,06,33,14.10
2019,05,28,06,34,14.10
2019,05,28,06,35,14.20
2019,05,28,06,36,14.20
2019,05,28,06,37,14.20
2019,05,28,06,38,14.20
2019,05,28,06,39,14.20
2019,05,28,06,40,14.20
2019,05,28,06,41,14.30
2019,05,28,06,42,14.30
2019,05,28,06,43,14.30
2019,05,28,06,44,14.30
2019,05,28,06,45,14.30
2019,05,28,06,46,14.30
2019,05,28,06,47,14.30
2019,05,28,06,48,14.40
2019,05,28,06,49,14.40
2019,05,28,06,50,14.40
2019,05,28,06,51,14.40
2019,05,28,06,52,14.40
2019,05,28,06,53,14.50
2019,05,28,06,54,14.40
2019,05,28,06,55,14.50
2019,05,28,06,56,14.50
2019,05,28,06,57,14.50
2019,05,28,06,58,14.60
2019,05,28,06,59,14.60
2019,05,28,07,00,14.60
2019,05,28,07,01,14.60
2019,05,28,07,02,14.60
2019,05,28,07,03,14.60
2019,05,28,07,04,14.70
2019,05,28,07,05,14.70
2019,05,28,07,06,14.70
2019,05,28,07,07,14.70
2019,05,28,07,08,14.70
2019,05,28,07,09,14.70
2019,05,28,07,10,14.80
2019,05,28,07,11,14.80
2019,05,28,07,12,14.80
2019,05,28,07,13,14.80
2019,05,28,07,14,14.80
2019,05,28,07,15,14.90
2019,05,28,07,16,14.90
2019,05,28,07,17,14.90
2019,05,28,07,18,14.90
2019,05,28,07,19,15.00
2019,05,28,07,20,15.00
2019,05,28,07,21,15.10
2019,05,28,07,22,15.10
2019,05,28,07,23,15.10
2019,05,28,07,24,15.20
2019,05,28,07,25,15.20
2019,05,28,07,26,15.20
2019,05,28,07,27,15.30
2019,05,28,07,28,15.40
2019,05,28,07,29,15.40
2019,05,28,07,30,15.50
2019,05,28,07,31,15.50
2019,05,28,07,32,15.60
2019,05,28,07,33,15.60
2019,05,28,07,34,15.60
2019,05,28,07,35,15.60
2019,05,28,07,36,15.60
2019,05,28,07,37,15.60
2019,05,28,07,38,15.60
2019,05,28,07,39,15.60
2019,05,28,07,40,15.60
2019,05,28,07,41,15.60
2019,05,28,07,42,15.70
2019,05,28,07,43,15.60
2019,05,28,07,44,15.60
2019,05,28,07,45,15.60
2019,05,28,07,46,15.60
2019,05,28,07,47,15.60
2019,05,28,07,48,15.60
2019,05,28,07,49,15.60
2019,05,28,07,50,15.70
2019,05,28,07,51,15.70
2019,05,28,07,52,15.70
2019,05,28,07,53,15.80
2019,05,28,07,54,15.80
2019,05,28,07,55,15.80
2019,05,28,07,56,15.90
2019,05,28,07,57,15.90
2019,05,28,07,58,15.90
2019,05,28,07,59,15.90
2019,05,28,08,00,15.90
2019,05,28,08,01,15.90
2019,05,28,08,02,15.90
2019,05,28,08,03,15.90
2019,05,28,08,04,15.90
2019,05,28,08,05,15.90
2019,05,28,08,06,15.90
2019,05,28,08,07,15.90
2019,05,28,08,08,15.90
2019,05,28,08,09,15.90
2019,05,28,08,10,15.90
2019,05,28,08,11,15.90
2019,05,28,08,12,16.00
2019,05,28,08,13,16.00
2019,05,28,08,14,16.00
2019,05,28,08,15,16.10
2019,05,28,08,16,16.10
2019,05,28,08,17,16.10
2019,05,28,08,18,16.20
2019,05,28,08,19,16.20
2019,05,28,08,20,16.30
2019,05,28,08,21,16.30
2019,05,28,08,22,16.40
2019,05,28,08,23,16.50
2019,05,28,08,24,16.60
2019,05,28,08,25,16.70
2019,05,28,08,26,16.70
2019,05,28,08,27,16.80
2019,05,28,08,28,16.80
2019,05,28,08,29,16.90
2019,05,28,08,30,16.90
2019,05,28,08,31,16.90
2019,05,28,08,32,17.00
2019,05,28,08,33,17.00
2019,05,28,08,34,17.10
2019,05,28,08,35,17.20
2019,05,28,08,36,17.30
2019,05,28,08,37,17.30
2019,05,28,08,38,17.40
2019,05,28,08,39,17.50
2019,05,28,08,40,17.50
2019,05,28,08,41,17.60
2019,05,28,08,42,17.60
2019,05,28,08,43,17.60
2019,05,28,08,44,17.70
2019,05,28,08,45,17.70
2019,05,28,08,46,17.70
2019,05,28,08,47,17.70
2019,05,28,08,48,17.70
2019,05,28,08,49,17.70
2019,05,28,08,50,17.70
2019,05,28,08,51,17.70
2019,05,28,08,52,17.60
2019,05,28,08,53,17.60
2019,05,28,08,54,17.60
2019,05,28,08,55,17.60
2019,05,28,08,56,17.60
2019,05,28,08,57,17.60
2019,05,28,08,58,17.60
2019,05,28,08,59,17.60
2019,05,28,09,00,17.60
2019,05,28,09,01,17.60
2019,05,28,09,02,17.60
2019,05,28,09,03,17.60
2019,05,28,09,04,17.60
2019,05,28,09,05,17.60
2019,05,28,09,06,17.60
2019,05,28,09,07,17.60
2019,05,28,09,08,17.60
2019,05,28,09,09,17.60
2019,05,28,09,10,17.60
2019,05,28,09,11,17.60
2019,05,28,09,12,17.60
2019,05,28,09,13,17.70
2019,05,28,09,14,17.70
2019,05,28,09,15,17.70
2019,05,28,09,16,17.80
2019,05,28,09,17,17.80
2019,05,28,09,18,17.90
2019,05,28,09,19,17.90
2019,05,28,09,20,18.00
2019,05,28,09,21,18.00
2019,05,28,09,22,18.10
2019,05,28,09,23,18.10
2019,05,28,09,24,18.20
2019,05,28,09,25,18.20
2019,05,28,09,26,18.30
2019,05,28,09,27,18.30
2019,05,28,09,28,18.30
2019,05,28,09,29,18.30
2019,05,28,09,30,18.30
2019,05,28,09,31,18.30
2019,05,28,09,32,18.30
2019,05,28,09,33,18.30
2019,05,28,09,34,18.30
2019,05,28,09,35,18.30
2019,05,28,09,36,18.40
2019,05,28,09,37,18.50
2019,05,28,09,38,18.50
2019,05,28,09,39,18.60
2019,05,28,09,40,18.60
2019,05,28,09,41,18.70
2019,05,28,09,42,18.70
2019,05,28,09,43,18.70
2019,05,28,09,44,18.70
2019,05,28,09,45,18.60
2019,05,28,09,46,18.60
2019,05,28,09,47,18.60
2019,05,28,09,48,18.50
2019,05,28,09,49,18.50
2019,05,28,09,50,18.40
2019,05,28,09,51,18.40
2019,05,28,09,52,18.40
2019,05,28,09,53,18.40
2019,05,28,09,54,18.50
2019,05,28,09,55,18.50
2019,05,28,09,56,18.70
2019,05,28,09,57,18.80
2019,05,28,09,58,18.90
2019,05,28,09,59,18.90
2019,05,28,10,00,19.00
2019,05,28,10,01,19.10
2019,05,28,10,02,19.10
2019,05,28,10,03,19.10
2019,05,28,10,04,19.10
2019,05,28,10,05,19.10
2019,05,28,10,06,19.10
2019,05,28,10,07,19.10
2019,05,28,10,08,19.20
2019,05,28,10,09,19.20
2019,05,28,10,10,19.20
2019,05,28,10,11,19.10
2019,05,28,10,12,19.10
2019,05,28,10,13,19.00
2019,05,28,10,14,19.00
2019,05,28,10,15,19.00
2019,05,28,10,16,18.90
2019,05,28,10,17,18.90
2019,05,28,10,18,18.90
2019,05,28,10,19,18.90
2019,05,28,10,20,18.90
2019,05,28,10,21,18.80
2019,05,28,10,22,18.80
2019,05,28,10,23,18.70
2019,05,28,10,24,18.70
2019,05,28,10,25,18.80
2019,05,28,10,26,18.90
2019,05,28,10,27,19.00
2019,05,28,10,28,19.10
2019,05,28,10,29,19.20
2019,05,28,10,30,19.20
2019,05,28,10,31,19.20
2019,05,28,10,32,19.30
2019,05,28,10,33,19.40
2019,05,28,10,34,19.40
2019,05,28,10,35,19.50
2019,05,28,10,36,19.60
2019,05,28,10,37,19.70
2019,05,28,10,38,19.80
2019,05,28,10,39,19.90
2019,05,28,10,40,19.90
2019,05,28,10,41,19.90
2019,05,28,10,42,19.90
2019,05,28,10,43,19.90
2019,05,28,10,44,19.90
2019,05,28,10,45,19.90
2019,05,28,10,46,19.90
2019,05,28,10,47,19.90
2019,05,28,10,48,20.00
2019,05,28,10,49,20.00
2019,05,28,10,50,20.00
2019,05,28,10,51,20.00
2019,05,28,10,52,20.00
2019,05,28,10,53,20.10
2019,05,28,10,54,20.10
2019,05,28,10,55,20.00
2019,05,28,10,56,20.00
2019,05,28,10,57,19.90
2019,05,28,10,58,19.90
2019,05,28,10,59,19.90
2019,05,28,11,00,20.00
2019,05,28,11,01,20.10
2019,05,28,11,02,20.20
2019,05,28,11,03,20.30
2019,05,28,11,04,20.40
2019,05,28,11,05,20.50
2019,05,28,11,06,20.60
2019,05,28,11,07,20.70
2019,05,28,11,08,20.80
2019,05,28,11,09,20.80
2019,05,28,11,10,20.80
2019,05,28,11,11,20.80
2019,05,28,11,12,20.80
2019,05,28,11,13,20.80
2019,05,28,11,14,20.80
2019,05,28,11,15,20.80
2019,05,28,11,16,20.80
2019,05,28,11,17,20.70
2019,05,28,11,18,20.50
2019,05,28,11,19,20.40
2019,05,28,11,20,20.30
2019,05,28,11,21,20.30
2019,05,28,11,22,20.20
2019,05,28,11,23,20.20
2019,05,28,11,24,20.20
2019,05,28,11,25,20.20
2019,05,28,11,26,20.20
2019,05,28,11,27,20.20
2019,05,28,11,28,20.20
2019,05,28,11,29,20.30
2019,05,28,11,30,20.30
2019,05,28,11,31,20.30
2019,05,28,11,32,20.30
2019,05,28,11,33,20.40
2019,05,28,11,34,20.40
2019,05,28,11,35,20.50
2019,05,28,11,36,20.60
2019,05,28,11,37,20.70
2019,05,28,11,38,20.80
2019,05,28,11,39,21.00
2019,05,28,11,40,21.10
2019,05,28,11,41,21.20
2019,05,28,11,42,21.20
2019,05,28,11,43,21.30
2019,05,28,11,44,21.20
2019,05,28,11,45,21.20
2019,05,28,11,46,21.30
2019,05,28,11,47,21.30
2019,05,28,11,48,21.20
2019,05,28,11,49,21.20
2019,05,28,11,50,21.10
2019,05,28,11,51,21.10
2019,05,28,11,52,21.10
2019,05,28,11,53,21.20
2019,05,28,11,54,21.20
2019,05,28,11,55,21.30
2019,05,28,11,56,21.30
2019,05,28,11,57,21.30
2019,05,28,11,58,21.30
2019,05,28,11,59,21.20
2019,05,28,12,00,21.10
2019,05,28,12,01,21.20
2019,05,28,12,02,21.20
2019,05,28,12,03,21.20
2019,05,28,12,04,21.30
2019,05,28,12,05,21.30
2019,05,28,12,06,21.10
2019,05,28,12,07,21.00
2019,05,28,12,08,20.80
2019,05,28,12,09,20.60
2019,05,28,12,10,20.50
2019,05,28,12,11,20.40
2019,05,28,12,12,20.30
2019,05,28,12,13,20.20
2019,05,28,12,14,20.10
2019,05,28,12,15,20.10
2019,05,28,12,16,20.00
2019,05,28,12,17,20.10
2019,05,28,12,18,20.20
2019,05,28,12,19,20.20
2019,05,28,12,20,20.30
2019,05,28,12,21,20.30
2019,05,28,12,22,20.30
2019,05,28,12,23,20.40
2019,05,28,12,24,20.30
2019,05,28,12,25,20.30
2019,05,28,12,26,20.30
2019,05,28,12,27,20.30
2019,05,28,12,28,20.30
2019,05,28,12,29,20.20
2019,05,28,12,30,20.20
2019,05,28,12,31,20.20
2019,05,28,12,32,20.00
2019,05,28,12,33,20.00
2019,05,28,12,34,20.00
2019,05,28,12,35,20.10
2019,05,28,12,36,20.10
2019,05,28,12,37,20.20
2019,05,28,12,38,20.30
2019,05,28,12,39,20.30
2019,05,28,12,40,20.40
2019,05,28,12,41,20.50
2019,05,28,12,42,20.60
2019,05,28,12,43,20.70
2019,05,28,12,44,20.80
2019,05,28,12,45,20.90
2019,05,28,12,46,21.00
2019,05,28,12,47,21.10
2019,05,28,12,48,21.20
2019,05,28,12,49,21.10
2019,05,28,12,50,21.10
2019,05,28,12,51,21.10
2019,05,28,12,52,21.20
2019,05,28,12,53,21.30
2019,05,28,12,54,21.30
2019,05,28,12,55,21.40
2019,05,28,12,56,21.40
2019,05,28,12,57,21.40
2019,05,28,12,58,21.40
2019,05,28,12,59,21.20
2019,05,28,13,00,21.10
2019,05,28,13,01,20.90
2019,05,28,13,02,20.80
2019,05,28,13,03,20.80
2019,05,28,13,04,20.80
2019,05,28,13,05,20.80
2019,05,28,13,06,20.80
2019,05,28,13,07,20.80
2019,05,28,13,08,20.80
2019,05,28,13,09,20.80
2019,05,28,13,10,20.80
2019,05,28,13,11,20.80
2019,05,28,13,12,20.70
2019,05,28,13,13,20.60
2019,05,28,13,14,20.50
2019,05,28,13,15,20.40
2019,05,28,13,16,20.30
2019,05,28,13,17,20.20
2019,05,28,13,18,20.10
2019,05,28,13,19,20.10
2019,05,28,13,20,20.00
2019,05,28,13,21,19.90
2019,05,28,13,22,19.90
2019,05,28,13,23,19.80
2019,05,28,13,24,19.60
2019,05,28,13,25,19.60
2019,05,28,13,26,19.50
2019,05,28,13,27,19.50
2019,05,28,13,28,19.40
2019,05,28,13,29,19.40
2019,05,28,13,30,19.30
2019,05,28,13,31,19.30
2019,05,28,13,32,19.30
2019,05,28,13,33,19.20
2019,05,28,13,34,19.20
2019,05,28,13,35,19.30
2019,05,28,13,36,19.30
2019,05,28,13,37,19.20
2019,05,28,13,38,19.20
2019,05,28,13,39,19.30
2019,05,28,13,40,19.30
2019,05,28,13,41,19.30
2019,05,28,13,42,19.30
2019,05,28,13,43,19.30
2019,05,28,13,44,19.30
2019,05,28,13,45,19.40
2019,05,28,13,46,19.40
2019,05,28,13,47,19.30
2019,05,28,13,48,19.20
2019,05,28,13,49,19.10
2019,05,28,13,50,19.10
2019,05,28,13,51,19.10
2019,05,28,13,52,19.00
2019,05,28,13,53,19.00
2019,05,28,13,54,19.20
2019,05,28,13,55,19.20
2019,05,28,13,56,19.20
2019,05,28,13,57,19.20
2019,05,28,13,58,19.20
2019,05,28,13,59,19.10
2019,05,28,14,00,19.10
2019,05,28,14,01,19.00
2019,05,28,14,02,19.00
2019,05,28,14,03,18.90
2019,05,28,14,04,19.00
2019,05,28,14,05,19.00
2019,05,28,14,06,19.10
2019,05,28,14,07,19.20
2019,05,28,14,08,19.20
2019,05,28,14,09,19.30
2019,05,28,14,10,19.30
2019,05,28,14,11,19.40
2019,05,28,14,12,19.40
2019,05,28,14,13,19.40
2019,05,28,14,14,19.40
2019,05,28,14,15,19.50
2019,05,28,14,16,19.50
2019,05,28,14,17,19.60
2019,05,28,14,18,19.60
2019,05,28,14,19,19.60
2019,05,28,14,20,19.70
2019,05,28,14,21,19.80
2019,05,28,14,22,19.80
2019,05,28,14,23,19.90
2019,05,28,14,24,19.90
2019,05,28,14,25,19.80
2019,05,28,14,26,19.80
2019,05,28,14,27,19.80
2019,05,28,14,28,19.70
2019,05,28,14,29,19.70
2019,05,28,14,30,19.70
2019,05,28,14,31,19.60
2019,05,28,14,32,19.50
2019,05,28,14,33,19.40
2019,05,28,14,34,19.40
2019,05,28,14,35,19.40
2019,05,28,14,36,19.40
2019,05,28,14,37,19.40
2019,05,28,14,38,19.40
2019,05,28,14,39,19.40
2019,05,28,14,40,19.40
2019,05,28,14,41,19.50
2019,05,28,14,42,19.50
2019,05,28,14,43,19.60
2019,05,28,14,44,19.60
2019,05,28,14,45,19.70
2019,05,28,14,46,19.80
2019,05,28,14,47,19.80
2019,05,28,14,48,19.80
2019,05,28,14,49,19.80
2019,05,28,14,50,19.90
2019,05,28,14,51,19.90
2019,05,28,14,52,20.00
2019,05,28,14,53,20.00
2019,05,28,14,54,20.00
2019,05,28,14,55,20.00
2019,05,28,14,56,20.10
2019,05,28,14,57,20.10
2019,05,28,14,58,20.20
2019,05,28,14,59,20.30
2019,05,28,15,00,20.40
2019,05,28,15,01,20.40
2019,05,28,15,02,20.40
2019,05,28,15,03,20.40
2019,05,28,15,04,20.40
2019,05,28,15,05,20.40
2019,05,28,15,06,20.40
2019,05,28,15,07,20.40
2019,05,28,15,08,20.40
2019,05,28,15,09,20.40
2019,05,28,15,10,20.30
2019,05,28,15,11,20.40
2019,05,28,15,12,20.40
2019,05,28,15,13,20.40
2019,05,28,15,14,20.40
2019,05,28,15,15,20.50
2019,05,28,15,16,20.40
2019,05,28,15,17,20.50
2019,05,28,15,18,20.40
2019,05,28,15,19,20.50
2019,05,28,15,20,20.60
2019,05,28,15,21,20.60
2019,05,28,15,22,20.70
2019,05,28,15,23,20.80
2019,05,28,15,24,20.80
2019,05,28,15,25,20.80
2019,05,28,15,26,20.90
2019,05,28,15,27,21.00
2019,05,28,15,28,21.10
2019,05,28,15,29,21.10
2019,05,28,15,30,21.00
2019,05,28,15,31,21.00
2019,05,28,15,32,20.90
2019,05,28,15,33,20.90
2019,05,28,15,34,20.90
2019,05,28,15,35,20.80
2019,05,28,15,36,20.80
2019,05,28,15,37,20.70
2019,05,28,15,38,20.70
2019,05,28,15,39,20.70
2019,05,28,15,40,20.70
2019,05,28,15,41,20.80
2019,05,28,15,42,20.80
2019,05,28,15,43,20.80
2019,05,28,15,44,20.70
2019,05,28,15,45,20.70
2019,05,28,15,46,20.60
2019,05,28,15,47,20.70
2019,05,28,15,48,20.80
2019,05,28,15,49,20.80
2019,05,28,15,50,20.80
2019,05,28,15,51,20.80
2019,05,28,15,52,20.80
2019,05,28,15,53,20.80
2019,05,28,15,54,20.80
2019,05,28,15,55,20.80
2019,05,28,15,56,20.70
2019,05,28,15,57,20.70
2019,05,28,15,58,20.60
2019,05,28,15,59,20.50
2019,05,28,16,00,20.50
2019,05,28,16,01,20.50
2019,05,28,16,02,20.40
2019,05,28,16,03,20.40
2019,05,28,16,04,20.40
2019,05,28,16,05,20.40
2019,05,28,16,06,20.40
2019,05,28,16,07,20.50
2019,05,28,16,08,20.50
2019,05,28,16,09,20.60
2019,05,28,16,10,20.60
2019,05,28,16,11,20.70
2019,05,28,16,12,20.70
2019,05,28,16,13,20.80
2019,05,28,16,14,20.80
2019,05,28,16,15,20.80
2019,05,28,16,16,20.80
2019,05,28,16,17,20.80
2019,05,28,16,18,20.90
2019,05,28,16,19,21.00
2019,05,28,16,20,21.10
2019,05,28,16,21,21.10
2019,05,28,16,22,21.00
2019,05,28,16,23,20.90
2019,05,28,16,24,20.90
2019,05,28,16,25,20.90
2019,05,28,16,26,20.80
2019,05,28,16,27,20.80
2019,05,28,16,28,20.80
2019,05,28,16,29,20.80
2019,05,28,16,30,20.80
2019,05,28,16,31,20.80
2019,05,28,16,32,20.80
2019,05,28,16,33,20.80
2019,05,28,16,34,20.70
2019,05,28,16,35,20.70
2019,05,28,16,36,20.70
2019,05,28,16,37,20.70
2019,05,28,16,38,20.70
2019,05,28,16,39,20.80
2019,05,28,16,40,20.80
2019,05,28,16,41,20.70
2019,05,28,16,42,20.70
2019,05,28,16,43,20.70
2019,05,28,16,44,20.70
2019,05,28,16,45,20.70
2019,05,28,16,46,20.80
2019,05,28,16,47,20.80
2019,05,28,16,48,20.70
2019,05,28,16,49,20.80
2019,05,28,16,50,20.80
2019,05,28,16,51,20.80
2019,05,28,16,52,20.80
2019,05,28,16,53,20.80
2019,05,28,16,54,20.90
2019,05,28,16,55,20.90
2019,05,28,16,56,20.90
2019,05,28,16,57,21.00
2019,05,28,16,58,21.10
2019,05,28,16,59,21.10
2019,05,28,17,00,21.10
2019,05,28,17,01,21.20
2019,05,28,17,02,21.20
2019,05,28,17,03,21.30
2019,05,28,17,04,21.30
2019,05,28,17,05,21.30
2019,05,28,17,06,21.30
2019,05,28,17,07,21.30
2019,05,28,17,08,21.20
2019,05,28,17,09,21.30
2019,05,28,17,10,21.30
2019,05,28,17,11,21.30
2019,05,28,17,12,21.30
2019,05,28,17,13,21.20
2019,05,28,17,14,21.20
2019,05,28,17,15,21.30
2019,05,28,17,16,21.30
2019,05,28,17,17,21.30
2019,05,28,17,18,21.30
2019,05,28,17,19,21.40